Temp
59 59 59 59 58 58 58 58 58 58 58 58 58 59 59 58 58 58 58 58 58 59 59 59 59 59 55 50 53 75 75 76 79 78 74 71 66 62 59 64 71 68 72 76 79 80 80
59 59 60 59 58 58 58 58 58 58 58 58 58 58 58 58 58 58 58 57 57 57 58 59 59 59 51 39 67 75 79 78 79 74 73 71 67 70 64 65 65 72 73 75 77 77 79
59 59 59 58 58 57 57 58 58 58 57 57 57 57 57 57 57 57 57 57 57 57 58 59 60 59 49 47 68 71 69 68 72 74 73 76 75 71 69 64 72 71 66 71 74 77 75
59 59 58 58 58 57 57 57 57 57 57 57 57 57 57 57 57 57 57 57 57 57 59 60 61 55 44 66 67 64 66 67 73 76 74 76 76 68 64 68 69 64 65 57 69 74 77
58 58 58 58 57 57 57 57 57 57 57 57 57 57 57 57 57 57 57 56 57 58 60 60 55 50 46 71 64 70 70 67 71 74 74 80 72 63 64 56 53 59 52 56 62 74 74
58 58 58 58 58 57 56 57 56 57 57 57 57 56 56 56 57 56 55 56 58 60 61 65 63 51 58 61 73 76 74 73 70 68 67 66 61 56 55 52 44 50 53 58 58 68 71
58 58 58 57 57 56 56 56 56 56 57 57 57 56 56 56 56 55 53 52 57 52 54 55 57 56 62 71 76 72 77 73 70 63 51 57 50 47 52 56 58 61 59 58 63 70 68
57 57 57 57 57 56 56 56 56 56 56 56 56 56 56 55 55 55 51 49 59 58 48 60 61 61 66 68 59 65 73 61 59 51 56 52 46 57 61 61 59 58 55 55 64 70 68
57 57 57 56 56 55 55 55 55 55 55 55 55 55 55 55 55 52 55 62 69 64 44 53 60 60 61 64 57 59 67 62 56 52 52 48 53 63 60 58 56 56 54 56 56 64 68
56 56 56 55 55 55 55 55 55 55 55 55 54 54 55 54 53 57 58 67 67 62 35 47 55 61 66 63 55 69 71 64 57 50 53 51 59 59 57 56 59 51 62 62 61 57 50
56 56 55 55 55 55 55 55 55 55 54 54 54 55 54 53 50 53 62 67 62 55 23 51 55 67 67 59 60 62 71 65 53 53 53 48 53 53 53 56 62 55 65 62 61 56 54
56 56 55 55 55 55 54 54 54 54 54 54 54 55 54 58 51 58 65 65 55 34 24 42 57 56 56 59 60 62 61 66 64 55 55 53 62 58 56 62 64 65 61 59 58 53 44
55 55 55 55 55 54 54 54 54 54 54 54 54 54 52 59 52 64 63 53 34 27 46 44 48 53 52 48 52 54 52 49 41 38 42 51 53 59 62 54 60 58 51 39 38 39 40
55 55 55 55 54 54 54 54 53 53 53 54 53 52 54 62 64 61 55 39 25 39 41 54 52 51 45 49 49 49 49 46 50 47 40 39 37 52 61 55 50 51 50 42 31 36 43
55 54 55 54 54 54 54 53 53 53 53 52 52 55 55 60 64 58 44 28 27 40 49 48 49 43 42 48 46 41 44 44 48 50 36 36 40 57 58 58 57 51 46 56 47 50 43
54 54 54 54 54 54 54 53 53 53 53 52 47 50 55 64 62 52 38 35 42 53 51 49 40 45 38 41 41 38 39 50 48 54 50 45 34 51 55 59 58 53 58 43 48 35 34
54 54 54 54 53 53 53 53 53 53 52 51 46 47 58 64 59 45 30 38 46 55 54 49 44 42 43 39 40 40 41 47 50 49 47 45 39 42 50 48 46 48 49 50 47 48 40
54 54 54 54 53 53 53 53 53 52 51 52 49 42 60 61 40 40 34 46 50 52 54 51 47 47 43 43 40 40 38 42 45 48 42 47 37 33 40 52 57 53 48 52 42 41 50
53 53 53 53 53 53 53 53 53 52 51 47 43 49 59 57 34 35 45 49 51 50 47 45 46 48 47 42 35 39 39 48 49 46 42 42 34 28 35 47 53 48 52 53 52 50 47
53 53 53 53 53 53 53 53 53 52 51 48 45 39 49 50 48 42 42 43 42 53 51 51 48 48 44 41 45 41 38 46 46 48 51 44 36 34 29 36 41 38 43 47 45 44 48
53 53 53 53 53 53 53 53 53 52 52 48 46 42 46 35 39 42 44 40 38 41 50 50 45 45 41 35 39 37 43 46 52 52 44 42 33 37 39 42 45 41 42 45 41 43 46
53 53 53 53 53 53 53 53 53 52 52 48 43 42 46 42 44 43 42 38 37 40 43 42 41 44 44 36 39 37 40 41 38 44 40 40 34 37 36 43 45 41 45 46 45 46 47
52 53 53 53 53 53 53 53 53 52 52 48 50 49 44 41 41 39 40 43 39 41 46 48 46 43 40 42 46 47 48 47 45 42 40 38 36 34 32 44 42 34 43 46 47 51 51
52 53 53 53 53 53 53 53 53 53 52 50 50 47 40 37 41 41 42 46 45 44 41 47 49 43 48 53 53 51 49 49 48 46 47 41 38 36 33 37 22 45 52 52 52 55 57
52 53 53 53 53 53 53 53 53 53 53 50 51 46 41 35 42 43 44 43 45 47 44 46 49 49 51 47 41 38 38 43 48 48 46 47 42 33 32 32 38 44 45 43 43 49 54
53 53 53 53 53 53 53 53 53 53 53 50 51 52 45 38 38 46 41 44 40 40 39 43 49 51 46 41 37 31 30 35 36 42 49 50 47 37 34 30 28 35 45 50 50 41 52
52 52 53 53 53 53 53 53 53 53 53 50 49 51 46 39 46 46 40 40 46 43 37 41 43 40 46 36 32 32 32 43 32 32 35 37 38 34 34 32 35 42 46 53 40 41 50
52 52 52 52 53 53 53 53 53 53 53 50 48 52 45 43 46 49 49 44 44 43 37 40 39 39 36 31 32 33 32 36 36 37 36 34 33 33 34 35 29 45 47 40 44 49 52
51 51 51 52 52 52 53 53 53 53 53 53 45 54 53 45 46 52 53 55 53 50 43 41 38 39 38 36 35 36 33 34 34 30 41 34 36 33 34 34 43 46 44 48 49 49 57
MSLP
1025.54 1025.25 1024.95 1024.64 1024.30 1023.94 1023.58 1023.18 1022.76 1022.34 1021.92 1021.50 1021.07 1020.62 1020.15 1019.66 1019.17 1018.67 1018.20 1017.84 1017.54 1017.23 1016.93 1016.59 1016.34 1016.24 1015.77 1014.47 1011.18 1008.29 1008.18 1007.80 1007.47 1007.49 1007.82 1008.21 1008.48 1008.60 1008.08 1007.66 1007.21 1005.70 1005.77 1005.54 1004.74 1004.25 1003.74
1025.69 1025.36 1024.96 1024.65 1024.35 1023.99 1023.60 1023.16 1022.73 1022.29 1021.86 1021.43 1020.97 1020.48 1020.01 1019.48 1018.91 1018.31 1017.75 1017.23 1016.84 1016.65 1016.52 1016.25 1016.00 1016.01 1015.87 1013.85 1010.22 1008.77 1008.28 1007.97 1007.46 1007.48 1007.69 1007.98 1007.92 1008.30 1007.95 1007.37 1006.97 1005.87 1005.71 1004.84 1004.30 1003.60 1003.27
1025.85 1025.47 1025.15 1024.84 1024.50 1024.15 1023.73 1023.25 1022.78 1022.31 1021.83 1021.36 1020.82 1020.30 1019.78 1019.20 1018.59 1017.90 1017.19 1016.51 1016.03 1015.76 1015.72 1015.59 1015.46 1015.41 1014.64 1012.27 1009.13 1008.28 1008.30 1008.22 1007.70 1007.44 1007.16 1007.19 1007.39 1007.64 1007.05 1007.24 1006.46 1006.29 1005.73 1004.77 1003.36 1003.08 1002.68
1026.05 1025.69 1025.30 1024.93 1024.55 1024.16 1023.76 1023.29 1022.82 1022.37 1021.88 1021.36 1020.81 1020.23 1019.66 1018.98 1018.27 1017.44 1016.62 1015.81 1015.24 1014.57 1014.64 1014.59 1014.64 1014.62 1012.63 1009.37 1008.73 1008.70 1007.96 1007.78 1007.19 1006.83 1007.02 1006.94 1006.69 1007.02 1007.06 1006.69 1006.20 1006.07 1005.86 1004.11 1002.85 1002.80 1002.11
1026.27 1025.87 1025.49 1025.07 1024.65 1024.27 1023.84 1023.36 1022.87 1022.33 1021.79 1021.23 1020.64 1020.02 1019.43 1018.66 1017.98 1017.16 1016.41 1015.29 1013.91 1013.22 1013.63 1013.71 1014.09 1013.68 1010.79 1007.64 1007.91 1006.86 1007.13 1007.15 1006.94 1006.80 1006.66 1006.75 1006.67 1007.10 1007.07 1006.95 1006.64 1005.53 1004.74 1003.72 1002.36 1002.00 1002.12
1026.43 1026.01 1025.53 1025.03 1024.58 1024.21 1023.73 1023.21 1022.70 1022.17 1021.61 1020.99 1020.36 1019.75 1019.03 1018.16 1017.63 1016.82 1016.02 1014.52 1012.13 1012.36 1012.71 1012.73 1012.67 1012.59 1009.33 1006.95 1005.68 1005.57 1005.73 1006.27 1006.34 1006.45 1006.59 1006.55 1006.89 1007.09 1006.96 1006.70 1004.55 1004.85 1004.23 1002.09 1001.06 1002.16 1001.59
1026.59 1026.14 1025.69 1025.23 1024.75 1024.26 1023.73 1023.13 1022.55 1021.98 1021.38 1020.72 1020.02 1019.42 1018.53 1017.61 1016.96 1016.38 1015.83 1014.38 1012.18 1012.31 1012.31 1011.78 1010.70 1009.47 1007.54 1006.45 1005.49 1005.44 1005.34 1005.43 1005.78 1006.11 1006.60 1006.57 1006.89 1005.31 1002.64 1005.18 1005.23 1004.22 1003.32 1002.24 1001.80 1002.14 1001.65
1026.84 1026.42 1025.94 1025.48 1024.97 1024.44 1023.74 1023.08 1022.44 1021.79 1021.16 1020.52 1019.81 1019.05 1018.15 1017.22 1016.36 1015.71 1015.82 1014.70 1012.85 1012.45 1010.77 1009.25 1009.21 1007.90 1007.43 1006.91 1006.34 1005.88 1005.79 1006.08 1006.00 1006.12 1006.48 1006.87 1004.86 1003.78 1005.45 1005.19 1005.27 1004.59 1003.33 1002.20 1001.78 1001.54 1000.96
1027.01 1026.52 1026.04 1025.56 1025.00 1024.39 1023.69 1022.99 1022.33 1021.63 1021.06 1020.42 1019.55 1018.66 1017.90 1016.71 1016.04 1015.15 1014.68 1013.39 1012.24 1011.99 1011.70 1008.02 1006.89 1006.37 1005.78 1006.33 1005.86 1005.77 1005.82 1005.59 1005.78 1006.10 1006.23 1005.86 1004.13 1004.73 1004.91 1004.61 1004.37 1003.23 1002.66 1002.67 1001.92 1002.07 1000.52
1026.97 1026.52 1026.02 1025.58 1024.97 1024.25 1023.62 1022.88 1022.21 1021.55 1020.97 1020.32 1019.48 1018.60 1017.86 1016.86 1015.62 1014.80 1013.97 1012.90 1012.46 1012.25 1011.80 1009.21 1006.93 1005.63 1004.78 1004.98 1005.27 1004.77 1004.19 1004.85 1005.27 1005.61 1006.13 1005.23 1004.42 1003.93 1003.72 1003.36 1003.29 1002.20 1002.66 1002.50 1002.40 1002.47 1000.53
1026.97 1026.45 1026.01 1025.51 1024.90 1024.18 1023.51 1022.86 1022.17 1021.43 1020.79 1020.13 1019.28 1018.59 1017.80 1017.19 1016.58 1015.32 1014.08 1013.06 1012.75 1012.73 1012.20 1009.40 1007.08 1005.96 1005.20 1005.20 1004.87 1003.92 1003.42 1003.50 1004.23 1004.94 1005.68 1003.40 1003.80 1003.50 1003.13 1002.37 1002.51 1001.35 1002.16 1002.26 1002.35 1001.98 1001.87
1026.85 1026.38 1025.89 1025.38 1024.78 1024.16 1023.49 1022.92 1022.25 1021.44 1020.69 1019.97 1019.08 1018.36 1017.98 1016.32 1016.27 1014.61 1013.75 1013.18 1012.96 1013.30 1012.14 1009.89 1007.23 1006.17 1005.26 1004.62 1004.42 1004.30 1004.20 1004.13 1003.68 1004.17 1004.36 1003.82 1003.83 1003.69 1002.74 1002.38 1002.02 1002.32 1002.10 1002.42 1002.32 1002.13 1001.47
1026.85 1026.33 1025.85 1025.35 1024.81 1024.26 1023.58 1022.93 1022.25 1021.38 1020.58 1019.77 1018.88 1017.79 1017.71 1016.96 1015.58 1013.98 1013.66 1013.67 1013.76 1013.45 1012.26 1009.87 1007.89 1006.97 1006.33 1006.25 1005.61 1005.19 1005.09 1005.55 1006.02 1005.51 1004.26 1003.94 1003.55 1003.08 1002.75 1002.45 1002.03 1002.12 1002.35 1002.65 1002.38 1001.78 999.30
1027.02 1026.41 1025.88 1025.34 1024.85 1024.28 1023.62 1022.88 1022.14 1021.32 1020.38 1019.38 1018.42 1017.03 1015.86 1015.47 1014.69 1014.18 1014.14 1014.35 1014.07 1012.95 1011.66 1009.61 1008.40 1007.73 1007.79 1007.34 1006.81 1006.52 1005.88 1005.50 1005.39 1005.23 1005.47 1004.68 1003.67 1002.97 1002.26 1002.15 1002.31 1001.65 1002.02 1001.80 1001.30 1000.39 999.28
1027.23 1026.63 1026.04 1025.42 1024.85 1024.22 1023.54 1022.78 1022.01 1021.16 1020.17 1019.22 1017.98 1015.92 1015.24 1014.34 1014.15 1014.28 1014.71 1014.67 1013.88 1013.01 1010.98 1009.82 1008.70 1008.02 1008.10 1007.92 1008.19 1008.26 1007.24 1006.12 1005.94 1006.09 1006.32 1005.27 1004.12 1003.30 1002.88 1002.51 1002.15 1001.35 1001.19 1000.88 1001.24 1000.53 999.77
1027.38 1026.77 1026.16 1025.59 1024.95 1024.28 1023.52 1022.72 1021.84 1020.96 1019.94 1018.69 1018.35 1016.43 1014.51 1013.78 1013.93 1014.38 1015.09 1014.72 1013.27 1011.86 1011.11 1010.66 1009.22 1008.82 1008.54 1008.58 1008.85 1009.12 1008.58 1006.85 1006.55 1005.99 1006.15 1005.95 1005.11 1004.03 1002.99 1002.56 1001.73 1001.61 1000.96 1001.18 1000.37 1000.63 999.73
1027.48 1026.86 1026.25 1025.63 1025.01 1024.40 1023.66 1022.81 1021.92 1020.92 1019.75 1018.03 1017.77 1015.86 1014.00 1013.38 1013.79 1014.73 1015.28 1014.54 1013.10 1011.88 1010.71 1009.69 1009.34 1009.07 1009.02 1009.39 1009.72 1009.44 1008.92 1007.94 1008.03 1007.44 1007.21 1007.03 1006.16 1004.50 1003.94 1003.07 1002.41 1001.46 1000.65 1000.97 1000.81 1000.00 999.20
1027.47 1026.86 1026.28 1025.70 1025.03 1024.32 1023.60 1022.88 1022.09 1021.23 1020.04 1018.56 1017.62 1015.68 1013.57 1013.31 1014.44 1014.96 1015.05 1014.16 1012.91 1011.66 1010.71 1010.16 1009.99 1009.74 1009.73 1009.61 1009.61 1009.83 1009.78 1009.23 1009.10 1008.83 1008.16 1007.67 1007.08 1005.47 1004.56 1002.99 1002.26 1001.98 1001.37 1000.83 1000.77 999.65 998.57
1027.47 1026.86 1026.23 1025.63 1025.10 1024.48 1023.73 1022.93 1022.28 1021.70 1021.22 1020.65 1018.86 1015.87 1013.62 1013.60 1014.52 1014.81 1014.57 1013.81 1013.07 1011.96 1011.76 1011.26 1010.43 1010.13 1009.82 1010.02 1010.43 1010.26 1009.84 1009.39 1009.02 1008.96 1008.49 1008.58 1007.93 1007.16 1004.75 1002.78 1002.20 1001.95 1001.06 1000.45 1000.04 999.67 998.08
1027.41 1026.81 1026.22 1025.62 1025.04 1024.48 1023.87 1023.09 1022.28 1021.74 1021.36 1020.98 1019.60 1016.78 1015.19 1014.50 1014.89 1015.23 1014.84 1014.23 1013.43 1012.23 1011.45 1011.02 1010.71 1010.41 1010.26 1010.10 1009.93 1009.66 1010.08 1009.26 1008.67 1008.58 1008.53 1008.83 1008.68 1007.90 1006.85 1004.83 1005.10 1004.00 1002.42 1001.57 1001.11 999.44 997.52
1027.32 1026.74 1026.22 1025.64 1025.02 1024.43 1023.87 1023.26 1022.43 1021.51 1020.87 1020.72 1019.49 1018.01 1017.33 1016.50 1016.17 1016.09 1015.65 1015.19 1014.17 1012.79 1012.04 1011.57 1010.82 1010.83 1010.69 1010.27 1009.71 1009.27 1008.78 1008.34 1007.87 1007.91 1008.42 1008.85 1008.64 1007.63 1006.46 1005.35 1004.54 1003.38 1002.65 1001.78 1001.53 1000.14 997.54
1027.13 1026.64 1026.16 1025.56 1024.97 1024.43 1023.90 1023.34 1022.74 1021.91 1020.62 1020.16 1019.73 1019.46 1018.52 1017.91 1016.99 1016.20 1015.48 1015.09 1014.47 1013.54 1012.91 1011.68 1011.46 1010.84 1010.48 1010.45 1009.71 1008.92 1008.69 1008.47 1008.26 1007.91 1008.31 1008.82 1008.26 1007.45 1005.62 1004.22 1003.78 1003.08 1002.11 1001.41 1001.03 999.52 997.77
1027.02 1026.52 1026.03 1025.53 1024.97 1024.37 1023.86 1023.36 1022.82 1022.32 1021.47 1020.88 1020.23 1019.93 1019.60 1018.22 1017.31 1016.51 1015.68 1014.89 1014.66 1014.07 1012.53 1012.00 1011.10 1010.64 1009.88 1009.36 1008.73 1007.88 1007.53 1007.15 1007.17 1007.40 1007.59 1007.81 1007.70 1006.83 1005.23 1003.28 1003.35 1002.81 1001.44 1001.12 1000.11 998.94 997.86
1026.81 1026.29 1025.79 1025.33 1024.84 1024.33 1023.81 1023.34 1022.90 1022.54 1022.30 1021.96 1021.09 1020.60 1019.86 1018.43 1017.69 1016.79 1015.96 1014.87 1014.20 1013.74 1012.83 1011.72 1010.86 1010.74 1009.87 1008.84 1007.40 1006.26 1005.56 1005.03 1005.40 1005.80 1006.36 1006.24 1006.50 1006.80 1005.34 1003.92 1003.40 1002.18 1001.86 1000.74 999.49 998.98 996.93
1026.54 1026.02 1025.55 1025.10 1024.57 1024.08 1023.62 1023.18 1022.73 1022.33 1022.15 1021.86 1021.01 1020.43 1019.79 1018.62 1017.67 1016.56 1015.60 1015.14 1014.21 1013.33 1012.71 1011.61 1010.75 1010.39 1009.54 1008.54 1007.41 1006.02 1005.09 1004.10 1003.95 1004.27 1004.86 1005.40 1005.93 1006.13 1004.97 1003.96 1003.35 1002.61 1002.98 1002.76 1001.94 999.76 996.83
1026.11 1025.69 1025.25 1024.76 1024.29 1023.78 1023.31 1022.86 1022.48 1022.19 1021.83 1021.42 1020.59 1019.97 1019.67 1018.81 1016.64 1016.16 1015.84 1014.95 1014.18 1013.45 1012.73 1012.00 1011.23 1010.16 1009.43 1008.92 1008.23 1007.60 1006.68 1006.39 1005.12 1004.32 1004.51 1004.58 1004.95 1005.77 1005.33 1004.92 1003.95 1003.38 1002.73 1001.94 1001.20 1000.93 998.24
1025.60 1025.19 1024.76 1024.30 1023.86 1023.44 1022.94 1022.51 1022.11 1021.83 1021.51 1021.35 1020.41 1019.77 1019.52 1018.57 1016.31 1016.19 1015.75 1014.83 1014.19 1013.81 1013.54 1012.81 1012.05 1011.11 1010.14 1010.19 1009.39 1008.92 1008.47 1007.59 1006.90 1006.39 1005.96 1005.77 1005.23 1005.40 1004.58 1004.79 1004.90 1004.20 1002.85 1001.32 1001.80 1002.19 1000.01
1025.04 1024.61 1024.26 1023.84 1023.35 1022.94 1022.53 1022.10 1021.67 1021.33 1021.08 1020.92 1020.04 1019.43 1019.57 1017.92 1015.65 1015.24 1014.69 1014.40 1013.94 1013.97 1013.69 1013.28 1012.84 1012.09 1011.57 1011.31 1010.88 1010.49 1010.17 1009.25 1008.34 1007.81 1007.31 1006.98 1006.57 1006.34 1005.47 1005.29 1005.59 1005.06 1003.92 1004.10 1004.16 1002.23 1000.81
1024.51 1024.09 1023.73 1023.28 1022.80 1022.40 1021.99 1021.60 1021.13 1020.73 1020.52 1020.28 1019.72 1018.71 1018.30 1017.80 1015.45 1014.30 1013.23 1012.61 1012.91 1012.56 1013.06 1013.74 1014.06 1013.73 1012.99 1012.65 1012.07 1011.58 1010.85 1010.22 1009.53 1008.76 1008.12 1007.85 1007.98 1007.82 1007.82 1007.62 1007.36 1006.55 1005.72 1005.33 1004.58 1003.15 1000.26
Wind_Speed
17 16 16 16 16 17 17 17 16 17 16 17 17 18 19 20 20 20 19 19 18 18 17 17 16 14 9 7 12 17 8 5 5 9 13 12 11 5 10 7 16 24 20 19 20 19 23
16 16 17 16 17 18 18 18 18 17 16 16 17 18 19 20 21 20 20 20 19 18 17 17 16 11 6 15 13 20 15 11 8 11 11 10 8 10 11 11 21 15 15 22 18 21 22
15 17 18 19 18 18 18 19 19 19 18 18 18 19 21 21 22 22 23 23 22 21 20 18 15 9 11 22 9 14 18 15 16 11 11 14 18 13 8 12 21 18 21 21 24 22 25
17 18 18 18 18 19 19 19 19 19 19 18 18 18 20 22 23 24 25 27 26 28 23 18 12 7 10 17 16 20 22 18 16 14 12 13 10 7 4 7 15 17 16 23 21 21 22
16 16 16 17 17 17 18 18 19 19 20 20 19 18 20 22 23 24 24 28 32 30 20 14 5 6 10 11 11 17 15 13 13 16 13 14 10 7 8 5 7 13 21 24 26 22 18
17 17 17 18 17 17 18 18 19 21 21 21 21 20 20 22 23 24 25 30 30 15 8 8 9 6 9 6 5 9 13 16 11 10 11 14 7 10 10 12 19 11 21 27 29 11 14
18 18 18 19 19 19 19 19 20 21 21 22 23 22 23 25 25 23 16 9 8 4 2 13 18 15 25 16 18 10 7 1 5 5 8 8 9 23 36 20 13 14 21 20 17 18 16
17 18 18 20 19 20 19 19 21 21 22 24 25 25 25 25 25 23 8 4 9 8 14 20 22 26 25 23 23 21 18 16 9 9 8 9 25 23 16 14 19 20 25 24 15 14 16
17 18 19 20 20 19 21 20 21 21 22 23 25 26 26 28 24 10 6 12 14 11 6 24 15 16 22 19 23 21 20 17 16 14 12 16 15 17 20 19 20 25 27 19 21 13 23
18 19 19 20 19 19 21 22 23 24 24 25 25 25 25 25 3 8 8 12 10 5 4 12 19 9 10 11 13 19 22 18 17 17 14 16 16 21 19 23 22 25 13 20 21 13 19
19 19 20 20 20 21 21 24 25 25 24 25 26 25 24 15 6 6 14 14 8 5 5 18 4 8 7 6 12 13 18 13 19 17 12 24 14 7 16 21 19 23 14 18 16 14 15
19 20 21 20 21 22 22 22 24 24 25 26 27 25 22 5 3 8 9 13 4 2 3 12 10 17 14 13 7 4 4 17 14 15 18 20 14 17 18 19 18 17 17 21 14 9 13
19 20 20 20 21 22 22 23 24 25 26 27 27 30 16 6 5 7 7 5 3 2 7 10 18 18 18 16 19 19 3 9 1 7 14 16 19 20 19 19 18 14 14 8 10 11 20
20 19 19 19 20 21 21 22 23 25 26 28 28 30 8 8 8 6 5 3 2 5 11 16 18 10 9 15 15 21 16 13 12 15 5 10 8 9 8 18 15 13 12 11 16 14 15
20 20 20 21 19 20 22 23 24 25 26 27 27 4 3 3 2 3 4 2 4 8 11 22 18 14 13 17 11 12 12 4 5 7 5 3 6 10 16 16 10 21 19 13 17 18 5
20 21 21 21 20 21 21 23 25 26 27 29 7 5 4 1 5 1 3 4 9 18 23 19 13 11 14 13 11 7 7 5 8 2 4 3 8 8 15 14 15 14 10 5 11 17 17
19 21 21 20 20 21 22 23 24 25 27 31 2 3 3 3 3 3 1 5 18 22 20 11 13 13 12 10 8 12 9 11 14 12 7 8 4 8 9 4 9 7 14 12 7 11 13
19 20 20 21 21 21 22 23 24 24 27 9 5 4 4 3 3 2 2 14 19 20 18 17 14 17 7 10 11 9 7 4 5 16 6 5 4 8 11 18 18 16 18 16 10 9 12
19 20 20 20 21 21 21 21 22 22 18 6 7 5 2 2 1 3 7 12 16 18 17 8 13 12 11 7 5 6 6 3 12 11 3 4 4 5 8 10 9 9 11 9 7 8 18
18 19 20 20 20 20 21 21 21 21 17 5 4 4 5 3 4 8 12 12 15 13 12 16 15 13 12 14 11 4 7 5 9 12 9 1 4 7 8 15 7 12 18 17 10 10 11
19 20 20 20 20 19 20 21 21 22 20 3 4 4 5 6 10 14 10 7 12 17 10 12 6 14 15 11 15 10 14 13 11 6 2 2 6 10 14 18 17 14 17 18 14 17 11
18 19 20 19 19 19 19 19 21 21 27 2 3 4 5 11 12 14 5 3 10 13 16 12 13 17 16 13 13 16 16 11 7 4 4 6 4 8 16 18 15 13 15 17 18 22 17
18 18 19 19 19 19 18 18 18 18 16 4 4 4 4 6 8 10 10 13 10 14 9 17 16 14 15 13 16 19 15 15 12 12 10 7 3 3 5 5 10 3 14 18 15 18 18
19 19 19 20 20 18 18 17 16 15 10 5 5 3 3 6 9 12 19 18 18 16 13 18 11 9 9 15 20 17 18 19 16 16 14 9 6 3 5 4 2 5 15 11 12 16 20
19 20 20 19 19 19 18 16 15 14 13 6 6 3 3 5 10 15 17 17 17 12 10 13 15 12 14 12 8 8 5 3 8 18 16 15 10 3 4 4 3 5 7 10 8 9 22
20 20 20 19 18 19 18 17 16 14 13 5 7 6 2 4 6 17 19 15 12 9 8 9 15 14 7 4 4 5 4 5 5 5 6 13 12 4 3 3 2 4 18 19 14 1 19
20 20 21 20 20 19 19 19 18 15 13 7 6 6 4 5 11 8 11 10 9 11 4 8 13 7 6 5 3 3 4 10 6 7 6 1 3 5 6 3 3 12 24 19 6 4 16
18 18 18 19 21 19 18 18 18 16 12 6 8 9 4 4 13 15 15 15 15 11 3 5 8 5 4 7 4 4 2 4 5 4 8 4 4 4 6 3 5 17 8 11 9 11 9
18 18 18 20 18 18 18 18 18 17 13 9 5 6 3 6 9 17 22 25 19 22 4 1 2 5 3 3 4 4 2 4 6 4 6 4 2 3 5 3 3 10 11 11 10 15 10
Wind_Direction
24 23 21 18 14 9 4 0 359 355 349 342 343 341 337 332 327 323 318 314 310 306 304 305 306 310 325 229 243 285 282 220 167 176 215 219 230 226 239 248 243 233 244 242 246 249 255
25 21 15 19 15 8 3 359 357 352 347 345 342 339 334 331 327 322 316 311 306 300 298 297 295 291 261 258 257 270 286 288 241 192 216 220 226 232 281 242 248 266 251 250 250 245 252
21 18 16 15 11 5 0 358 355 350 348 344 340 336 334 330 326 321 317 312 305 300 300 295 289 265 252 246 247 295 305 290 292 295 236 215 220 219 168 247 254 265 268 268 254 252 252
17 15 15 10 7 3 358 355 353 348 345 341 337 331 328 325 323 319 315 309 304 299 300 291 288 248 253 248 242 249 263 267 268 273 271 289 297 285 235 299 270 250 264 257 251 255 252
14 13 10 8 5 1 354 351 348 345 343 339 334 327 323 319 319 312 310 305 299 290 291 279 246 201 261 275 212 243 236 250 265 272 248 257 271 265 293 253 267 229 238 249 254 235 246
10 6 4 4 360 357 350 350 346 345 342 338 331 326 322 315 317 313 313 304 287 289 250 238 229 263 259 245 251 227 194 213 223 228 262 221 229 234 239 223 218 210 225 234 248 239 238
8 3 359 355 353 353 348 346 344 342 339 334 329 328 323 322 319 317 326 324 360 40 233 287 272 236 285 283 309 297 239 249 267 193 217 260 206 219 221 222 240 256 239 254 248 239 262
0 357 352 351 349 346 344 344 341 339 337 333 330 329 328 325 319 317 299 259 354 277 299 275 267 264 263 279 287 287 299 290 270 234 220 228 232 232 239 236 237 246 260 262 274 244 254
354 352 350 347 345 344 343 343 340 338 339 334 330 330 332 325 321 308 284 339 337 356 311 302 269 255 256 237 250 257 251 252 253 253 240 234 249 229 234 229 237 230 238 251 256 284 281
353 351 351 346 343 342 342 343 341 341 339 332 328 328 331 335 357 319 342 339 344 353 303 312 351 3 347 217 251 256 241 227 232 240 248 259 259 240 251 225 231 241 240 242 253 256 258
353 353 351 346 343 342 341 342 339 338 335 331 326 328 331 323 289 311 334 323 3 19 299 331 280 238 294 19 299 330 334 215 225 226 216 241 275 261 250 248 230 252 258 236 259 244 259
354 354 351 347 344 341 340 340 335 335 332 328 325 325 336 311 205 249 331 316 8 327 358 309 324 343 332 347 320 351 354 316 284 215 234 251 246 255 266 272 256 261 244 249 265 256 254
355 355 351 348 345 341 338 337 335 330 330 328 325 318 319 294 262 340 327 345 56 1 309 316 348 9 7 356 348 333 99 286 175 320 228 240 243 243 253 270 273 268 228 245 239 229 239
352 352 349 348 344 340 337 336 333 332 330 327 325 309 252 244 275 19 325 358 325 309 304 323 336 14 358 343 340 341 325 275 181 192 297 273 261 279 277 233 254 262 235 213 219 222 251
350 350 348 348 345 341 338 337 335 334 333 329 325 296 253 215 89 52 23 324 214 322 280 343 334 349 339 350 17 341 325 328 341 61 201 330 273 294 303 309 253 255 253 246 251 281 252
349 349 348 346 343 341 340 338 339 337 335 327 317 280 253 97 118 358 52 280 306 326 338 326 320 340 336 345 352 32 317 330 314 34 5 326 296 269 282 303 295 268 258 258 220 230 252
344 346 345 345 344 342 341 341 344 342 339 324 220 259 154 224 126 45 108 267 321 322 302 302 347 330 335 353 321 326 234 287 332 335 10 320 258 267 291 232 262 304 245 238 271 209 231
342 344 343 343 343 345 344 340 343 347 343 354 315 298 192 192 37 233 265 320 315 323 357 335 357 333 334 328 319 322 336 320 45 316 304 291 291 292 282 284 275 285 284 228 226 257 233
340 341 341 341 342 345 345 343 342 347 0 328 315 270 238 106 289 291 300 310 321 334 334 292 323 341 339 332 320 322 300 259 308 305 324 6 311 315 300 233 223 267 285 267 233 240 221
338 339 339 340 342 344 344 342 342 343 344 327 290 321 323 317 5 329 322 319 326 317 312 346 327 332 331 327 326 297 255 251 233 260 274 116 242 234 259 294 304 280 313 321 342 250 233
337 338 337 338 339 343 344 342 343 341 336 297 249 307 357 325 323 309 335 280 306 316 337 332 308 333 328 318 311 307 320 316 304 163 101 143 252 236 251 265 276 252 278 296 307 288 263
333 335 335 336 338 340 343 344 342 346 334 203 339 346 342 296 302 300 334 303 299 308 326 310 324 309 313 307 295 309 305 301 279 180 150 168 262 277 280 266 261 253 266 284 282 280 280
328 330 333 335 337 337 338 342 343 347 346 333 12 339 287 274 302 323 329 337 323 306 309 319 305 321 313 278 295 288 279 267 244 275 272 213 224 276 264 179 152 235 249 256 261 263 262
329 330 332 333 336 335 335 337 340 340 352 309 296 292 278 283 313 318 318 315 339 329 309 316 330 316 304 304 297 286 266 249 231 230 226 243 216 244 265 123 182 35 19 345 291 280 314
324 326 329 329 331 332 332 332 333 334 328 304 295 271 276 274 295 301 329 328 316 312 318 311 332 323 320 301 302 300 323 310 205 222 209 220 243 267 269 234 324 63 7 344 336 339 344
318 320 323 325 326 327 327 327 330 332 331 305 296 281 237 289 240 333 313 295 312 326 318 308 319 317 301 294 343 327 360 313 318 25 277 202 215 204 286 322 249 328 326 326 312 272 343
315 317 316 318 320 324 324 324 326 328 326 313 281 292 259 255 274 273 301 308 308 318 275 296 342 317 341 341 329 349 341 351 346 2 344 265 304 238 257 192 161 330 335 312 116 357 324
304 307 311 314 317 319 320 321 321 318 317 319 284 277 241 264 282 270 277 279 313 299 294 318 331 7 321 9 341 358 344 340 313 356 337 15 322 343 315 43 25 343 346 30 315 310 293
303 305 309 313 305 315 315 316 316 315 314 309 266 285 322 248 275 292 276 266 250 249 220 137 252 275 324 329 3 313 327 319 331 356 343 42 353 322 4 19 354 353 349 315 321 272 291